Location: Chillicothe
(39.7950°N, 93.5520°W)
Time: 17:49:24
(UTC-06:00)

Vanguard 3 - Pass Details

Date: 25 October 2019
Orbit: 507 x 3263 km, 33.4° (Epoch: 21 November)

Event Time Altitude Azimuth Distance (km) Brightness Sun altitude
Rises 20:32:01 0° 206° (SSW) 4,821 11.4 -25.8°
Reaches altitude 10° 20:38:21 10° 178° (S) 3,100 10.0 -27.0°
Enters shadow 20:39:30 11° 169° (S) 2,881 9.8 -27.2°
Maximum altitude 20:40:38 12° 159° (SSE) 2,720 - -27.4°
Drops below altitude 10° 20:42:38 10° 140° (SE) 2,611 - -27.8°
Sets 20:46:39 0° 107° (ESE) 3,123 - -28.6°
